{"data":{"norad_id":53047,"epoch":"2026-05-24T23:19:38.482752Z","epoch_age_seconds":86222,"freshness":"FRESH","line1":"1 53047U 22077E   26144.97197318 -.00000569  00000+0 -35374-4 0  9996","line2":"2 53047  97.4484 324.9302 0001205 167.0433 193.0826 15.05657425212398","mean_motion":15.05657425,"eccentricity":0.0001205,"inclination_deg":97.4484,"raan_deg":324.9302,"arg_perigee_deg":167.0433,"mean_anomaly_deg":193.0826,"bstar":-3.5374e-5,"rev_number":21239,"period_min":95.639285277659,"perigee_km":548.6535998232,"apogee_km":550.32315753946,"semimajor_km":6927.6253786813,"source":"CELESTRAK","updated_at":"2026-05-25T13:38:17.286083Z"}}